Regional Weather Roundup
Issued by NWS San Angelo, TX

Home | Current Version | Previous Version | Text Only | Print | Product List | Glossary On
Versions: 1 2 3 4 5 6 7 8 9 10 11 12 13 14 15 16 17 18 19 20 21 22 23 24 25 26 27 28 29 30 31 32 33 34 35 36 37 38 39 40 41 42 43 44 45 46 47 48 49 50
000
ASUS44 KSJT 291510
RWRSJT
WEST CENTRAL TEXAS REGIONAL WEATHER ROUNDUP
NATIONAL WEATHER SERVICE SAN ANGELO TX
1000 AM CDT SAT APR 29 2017

NOTE: "FAIR" INDICATES FEW OR NO CLOUDS BELOW 12,000 FEET WITH NO
SIGNIFICANT WEATHER AND/OR OBSTRUCTIONS TO VISIBILITY.

TXZ049-054-064>066-071>073-076>078-098-099-113-114-127-128-139-140-
154-155-168>170-291600
...LOCATIONS ACROSS WEST CENTRAL TEXAS...

CITY           SKY/WX    TMP DP  RH WIND       PRES   REMARKS
SAN ANGELO     CLOUDY    69  50  50 W21       29.64R
ABILENE        CLOUDY    50  50 100 N20G31    29.70R
DYESS AFB      LGT RAIN  51  49  91 NW12      29.70R
JUNCTION       CLOUDY    77  67  71 SW12      29.62R HAZE
SWEETWATER     CLOUDY    50  47  87 N18G25    29.75R
BROWNWOOD      CLOUDY    75  66  73 S10       29.61F HAZE
COLEMAN        PTSUNNY   77  65  66 S10       29.60F
SONORA         PTSUNNY   75  68  78 W8G18     29.69R
OZONA            N/A     64  46  52 NW18G24   29.73R
BRADY          NOT AVBL
$$

TEXAS PANHANDLE/OKLAHOMA PANHANDLE

CITY           SKY/WX    TMP DP  RH WIND       PRES   REMARKS
AMARILLO       LGT SNOW  33  32  96 NW22G32   29.90R FOG     WCI  21
BORGER         LGT SNOW  34  33  96 NW17G24   29.91R FOG     WCI  23
CANADIAN       LGT RAIN  42  41  95 N18G25    29.81R WCI  33
DALHART        SNOW      34  33  96 N26G36    29.95S VSB 1/2 WCI  21
DUMAS          CLOUDY    32  31  96 N26G35    29.94R VSB 1   WCI  18
GUYMON         NOT AVBL
HEREFORD       LGT SNOW  35  34  96 N23G29    29.93R WCI  23
PAMPA          LGT RAIN  38  37  94 N20       29.85S WCI  28
PERRYTON       CLOUDY    37  37  97 N21       29.83F WCI  27
$$

SOUTHERN PANHANDLE/SOUTH PLAINS/ROLLING PLAINS

CITY           SKY/WX    TMP DP  RH WIND       PRES   REMARKS
LUBBOCK        CLOUDY    45  40  82 N24G36    29.83R WCI  36
SNYDER         CLOUDY   N/A N/A N/A N20G26    29.73R
CHILDRESS      LGT RAIN  46  43  89 N25       29.75S WCI  37
SEMINOLE       CLOUDY    49  39  68 N23G33    29.82S
$$

PERMIAN BASIN

CITY           SKY/WX    TMP DP  RH WIND       PRES   REMARKS
MIDLAND        CLOUDY    53  42  66 N24G36    29.78R
ODESSA         CLOUDY    52  44  74 N21G30    29.79S
WINK           CLOUDY    56  42  59 N23G33    29.80R
$$

FAR WEST/SOUTHWEST MOUNTAINS/TRANS PECOS

CITY           SKY/WX    TMP DP  RH WIND       PRES   REMARKS
ALPINE         CLOUDY    55  38  54 NE10      29.88S
DRYDEN           N/A     67  43  41 N28G39    29.67R
EL PASO        LGT RAIN  44  37  76 SE12      29.86F WCI  38
FORT STOCKTON  CLOUDY    58  43  57 NW17      29.81S
GUADALUPE PASS LGT RAIN  44  39  82 SE13      29.87S WCI  38
MARFA          CLOUDY    55  38  52 NE13      29.83R
PECOS          CLOUDY    57  42  57 NW17      29.83R
$$

DALLAS/FORT WORTH METROPLEX

CITY           SKY/WX    TMP DP  RH WIND       PRES   REMARKS
DFW AIRPORT    CLOUDY    82  71  69 S26G44    29.54S
FTW MEACHAM    CLOUDY    81  72  74 S16G32    29.56R HAZE
DAL-EXECUTIVE  CLOUDY    80  72  76 S16G30    29.56R HAZE
GRAND PRAIRIE  PTSUNNY   81  70  69 S22G35    29.57R
ADDISON        PTSUNNY   81  70  69 S25G39    29.56F HAZE
MESQUITE       CLOUDY    81  72  74 S18G28    29.58S FOG
LANCASTER      PTSUNNY   80  72  75 S17G30    29.59R
$$

NORTH CENTRAL TEXAS

CITY           SKY/WX    TMP DP  RH WIND       PRES   REMARKS
SHRMAN/DENISON PTSUNNY   78  71  80 S12       29.60S HAZE
GAINESVILLE    CLOUDY    78  70  74 SW17G26   29.60R HAZE
BRIDGEPORT     CLOUDY    79  67  67 SW8G20    29.59R
DENTON         CLOUDY    79  71  76 S15G25    29.57R
WAXAHACHIE     CLOUDY    80  71  74 S26G44    29.58R HAZE
GRANBURY       CLOUDY    82  68  63 S15G26    29.57R
$$

WESTERN NORTH TEXAS

CITY           SKY/WX    TMP DP  RH WIND       PRES   REMARKS
WICHITA FALLS  CLOUDY    53  50  89 N15       29.62F
VERNON         CLOUDY    50  47  89 N21       29.68F
BRECKENRIDGE   CLOUDY    58  50  73 NW14G20   29.63R HAZE
COMANCHE       CLOUDY    76  67  74 S13G22    29.61S
$$

CENTRAL AND SOUTH CENTRAL TEXAS

CITY           SKY/WX    TMP DP  RH WIND       PRES   REMARKS
AUSTIN/BERGSTM CLOUDY    82  71  69 S18G30    29.60F HAZE
WACO           CLOUDY    80  71  74 S24G32    29.59R
HILLSBORO      CLOUDY    81  72  75 S26G36    29.59R
TEMPLE         CLOUDY    79  72  79 S23G32    29.60R
KILLEEN-GRAY   MOSUNNY   80  69  69 S22G36    29.58F
FORT HOOD      PTSUNNY   81  70  69 S24       29.56F
GEORGETOWN     CLOUDY    81  68  65 SE15G25   29.61F
LAGO VISTA     CLOUDY    79  70  73 S15G26    29.63F
SAN MARCOS     PTSUNNY   81  72  74 S20G26    29.62F
NEW BRAUNFELS  CLOUDY    82  71  69 S18G24    29.59F HAZE
RANDOLPH AFB   MOSUNNY   81  72  74 S20G25    29.60F
SAN ANTONIO    PTSUNNY   80  70  71 SE14G24   29.61F
STINSON        LGT RAIN  83  70  64 SE20G25   29.57F
PLEASANTON     NOT AVBL
LA GRANGE      CLOUDY    82  76  81 S15       29.62R HAZE
GIDDINGS       CLOUDY    80  72  76 S9G22     29.64S HAZE
$$

EAST TEXAS

CITY           SKY/WX    TMP DP  RH WIND       PRES   REMARKS
PARIS          CLOUDY    75  70  83 S20G26    29.63R
CLARKSVILLE    NOT AVBL
TYLER          CLOUDY    79  72  79 S16G29    29.64R
LONGVIEW       CLOUDY    79  73  82 S18G25    29.66S
PALESTINE      CLOUDY    79  73  83 SE12      29.65S
NACOGDOCHES    CLOUDY    79  72  78 S13G22    29.68S
$$

TEXAS HILL COUNTRY AND EDWARDS PLATEAU

CITY           SKY/WX    TMP DP  RH WIND       PRES   REMARKS
LLANO          PTSUNNY   81  68  65 S13G18    29.62F
HORSESHOE BAY  CLOUDY    80  68  68 S13G24    29.61S
KERRVILLE      CLOUDY    76  71  83 SE17      29.61F HAZE
FREDERICKSBRG  CLOUDY    75  65  70 S14G20    29.61F
ROCKSPRINGS    PTSUNNY   72  66  83 S12       29.67R HAZE
HONDO          CLOUDY    80  70  71 SE13      29.59S HAZE
UVALDE         CLOUDY    76  70  82 SE8       29.60R HAZE
DEL RIO        CLOUDY    76  70  82 SE9       29.58R
$$

SOUTHEAST TEXAS

CITY           SKY/WX    TMP DP  RH WIND       PRES   REMARKS
COLLEGE STN    CLOUDY    81  74  79 S25G32    29.63S
CALDWELL       NOT AVBL
CROCKETT       PTSUNNY   79  73  83 SE14G22   29.69S
BRENHAM        CLOUDY    81  75  81 S20       29.64F HAZE
HUNTSVILLE     CLOUDY    80  72  76 S16G25    29.65F
CONROE         CLOUDY    79  74  84 SE16G24   29.67F
HOUSTON BUSH   CLOUDY    82  74  76 S24G33    29.68F HAZE
HOUSTON HOBBY  CLOUDY    81  75  82 S17G31    29.67F
PERLAND        CLOUDY    83  74  74 SE23G33   29.69F HAZE
WHARTON        PTSUNNY   82  73  73 SE23G35   29.64F HAZE
$$

THE UPPER TEXAS COAST

CITY           SKY/WX    TMP DP  RH WIND       PRES   REMARKS
ORANGE         CLOUDY    78  75  90 S17G26    29.77R THUNDER FOG
PORT ARTHUR    CLOUDY    79  74  84 SE21G35   29.73R
GALVESTON      CLOUDY    82  76  81 SE24G32   29.70F HAZE
ANGLETON       CLOUDY    83  76  79 S29G44    29.67F
BAY CITY       CLOUDY    83  76  79 SE26G36   29.64F HAZE
$$

TEXAS COASTAL BEND, RIO GRANDE PLAINS DEEP SOUTH TEXAS

CITY           SKY/WX    TMP DP  RH WIND       PRES   REMARKS
VICTORIA       CLOUDY    83  75  77 S25G36    29.63R
BEEVILLE       CLOUDY    82  77  84 SE16      29.60F
ROCKPORT       CLOUDY    82  75  79 SE20G28   29.59R HAZE
PORT ARANSAS   CLOUDY    81  75  83 SE22G32   29.59S HAZE
PORT LAVACA    PTSUNNY   83  78  84 SE28G39   29.62S HAZE
CORPUS CHRISTI PTSUNNY   82  76  81 S24G31    29.59R
KINGSVILLE NAS CLOUDY    85  77  77 S22G33    29.57R
COTULLA        MOSUNNY   83  69  62 SE14G22   29.56S
LAREDO         CLOUDY    81  71  71 SE16      29.56S
BROWNSVILLE    CLOUDY    87  77  72 S25G38    29.58F
PORT ISABEL    CLOUDY    85  77  77 SE29G39   29.56F HAZE
HEBBRONVILLE   PTSUNNY   80  70  72 S14G21    29.58R
MCALLEN        MOSUNNY   87  75  67 S20G26    29.54F HAZE
WESLACO        MOSUNNY   86  74  68 S23G32    29.54S
FALFURRIAS     MOSUNNY   84  74  70 SE16      29.55F
EDINBURG       MOSUNNY   87  73  63 S14G26    29.55S
$$




USA.gov is the U.S. government's official web portal to all federal, state and local government web resources and services.